OCN1226 EDDL-EHAM

Flight info

Callsign OCN1226
Flight time 0h 32m
Altitude 18000
Route SONEB6Z/05R SONEB P55 RKN
Aircraft A320/M-SDE3FGHIRWY/LB1

Departure

Time 2026-05-06 07:01
Airport Düsseldorf Airport (EDDL)

Arrival

Time 2026-05-06 07:33
Airport Amsterdam Airport Schiphol (EHAM)
Time Latitude Longitude Altitude Speed Heading
2026-05-06 06:45 51.28194 6.76553 125 ft 0 kts 96°
2026-05-06 06:54 51.28195 6.76532 125 ft 4 kts 99°
2026-05-06 06:54 51.28201 6.76489 127 ft 4 kts 111°
2026-05-06 06:54 51.28214 6.76453 126 ft 4 kts 141°
2026-05-06 06:54 51.28231 6.76442 127 ft 1 kts 189°
2026-05-06 06:55 51.28235 6.76443 127 ft 0 kts 189°
2026-05-06 06:57 51.28231 6.76438 127 ft 2 kts 212°
2026-05-06 06:57 51.28228 6.76430 126 ft 3 kts 233°
2026-05-06 06:57 51.28187 6.76329 127 ft 11 kts 236°
2026-05-06 06:58 51.28191 6.76244 125 ft 7 kts 313°
2026-05-06 06:58 51.28201 6.76173 126 ft 8 kts 255°
2026-05-06 06:58 51.28156 6.76095 124 ft 9 kts 230°
2026-05-06 06:58 51.28132 6.76034 129 ft 4 kts 239°
2026-05-06 06:59 51.28074 6.75906 127 ft 27 kts 232°
2026-05-06 06:59 51.27962 6.75668 126 ft 26 kts 233°
2026-05-06 06:59 51.27857 6.75450 126 ft 22 kts 233°
2026-05-06 06:59 51.27870 6.75303 124 ft 12 kts 338°
2026-05-06 07:00 51.27957 6.75268 122 ft 13 kts 355°
2026-05-06 07:00 51.28024 6.75333 121 ft 4 kts 50°
2026-05-06 07:00 51.28046 6.75375 122 ft 28 kts 50°
2026-05-06 07:00 51.28314 6.75938 126 ft 96 kts 51°
2026-05-06 07:01 51.28831 6.77020 132 ft 148 kts 52°
2026-05-06 07:01 51.29499 6.78447 525 ft 167 kts 51°
2026-05-06 07:01 51.29968 6.79485 1019 ft 166 kts 55°
2026-05-06 07:01 51.30590 6.81466 2331 ft 141 kts 58°
2026-05-06 07:02 51.31194 6.82782 2729 ft 156 kts 50°
2026-05-06 07:02 51.31942 6.84208 3034 ft 178 kts 50°
2026-05-06 07:02 51.32788 6.85823 3326 ft 200 kts 50°
2026-05-06 07:02 51.33715 6.87664 3567 ft 225 kts 52°
2026-05-06 07:03 51.34797 6.89638 3962 ft 249 kts 38°
2026-05-06 07:03 51.36412 6.90842 4570 ft 264 kts 11°
2026-05-06 07:03 51.37624 6.91162 5146 ft 267 kts
2026-05-06 07:03 51.40096 6.91792 6362 ft 272 kts
2026-05-06 07:04 51.41985 6.92288 7171 ft 278 kts
2026-05-06 07:04 51.43254 6.92624 7717 ft 281 kts
2026-05-06 07:04 51.45234 6.93152 8558 ft 287 kts
2026-05-06 07:04 51.47199 6.93676 9355 ft 294 kts
2026-05-06 07:05 51.49234 6.94135 10159 ft 298 kts
2026-05-06 07:05 51.51328 6.93936 10714 ft 311 kts 349°
2026-05-06 07:05 51.53545 6.93318 10952 ft 335 kts 348°
2026-05-06 07:05 51.55915 6.92640 11167 ft 356 kts 348°
2026-05-06 07:06 51.58393 6.91932 11706 ft 366 kts 348°
2026-05-06 07:06 51.60914 6.91219 12426 ft 370 kts 349°
2026-05-06 07:06 51.63470 6.90502 13068 ft 377 kts 349°
2026-05-06 07:06 51.66067 6.89776 13742 ft 381 kts 350°
2026-05-06 07:07 51.68688 6.89050 14402 ft 384 kts 349°
2026-05-06 07:07 51.71334 6.88302 15032 ft 387 kts 348°
2026-05-06 07:07 51.73985 6.87419 15630 ft 391 kts 347°
2026-05-06 07:07 51.76646 6.86416 16261 ft 394 kts 346°
2026-05-06 07:08 51.79307 6.85352 16906 ft 396 kts 345°
2026-05-06 07:08 51.81996 6.84262 17485 ft 400 kts 345°
2026-05-06 07:08 51.84708 6.83176 17765 ft 403 kts 346°
2026-05-06 07:08 51.87477 6.82093 17812 ft 417 kts 347°
2026-05-06 07:09 51.90352 6.80988 17813 ft 433 kts 347°
2026-05-06 07:09 51.93301 6.79869 17812 ft 438 kts 347°
2026-05-06 07:09 51.96272 6.78745 17809 ft 439 kts 347°
2026-05-06 07:09 51.99244 6.77618 17812 ft 437 kts 347°
2026-05-06 07:10 52.02232 6.76666 17814 ft 438 kts 353°
2026-05-06 07:10 52.05271 6.76418 17818 ft 438 kts
2026-05-06 07:10 52.08309 6.76011 17814 ft 437 kts 348°
2026-05-06 07:10 52.11203 6.74522 17820 ft 436 kts 336°
2026-05-06 07:11 52.13872 6.72241 17817 ft 429 kts 327°
2026-05-06 07:11 52.16203 6.69503 17823 ft 409 kts 319°
2026-05-06 07:11 52.18257 6.66279 17343 ft 405 kts 310°
2026-05-06 07:11 52.20014 6.62738 17088 ft 410 kts 308°
2026-05-06 07:12 52.21816 6.59037 16820 ft 411 kts 307°
2026-05-06 07:12 52.23559 6.55438 16559 ft 410 kts 308°
2026-05-06 07:12 52.25321 6.51789 16299 ft 409 kts 308°
2026-05-06 07:12 52.27081 6.48147 16044 ft 407 kts 308°
2026-05-06 07:13 52.28829 6.44529 15788 ft 404 kts 308°
2026-05-06 07:13 52.30560 6.40946 15543 ft 399 kts 308°
2026-05-06 07:13 52.32274 6.37404 15293 ft 396 kts 308°
2026-05-06 07:13 52.33977 6.33880 15044 ft 394 kts 309°
2026-05-06 07:14 52.35669 6.30374 14788 ft 392 kts 309°
2026-05-06 07:14 52.37345 6.26896 14561 ft 387 kts 309°
2026-05-06 07:14 52.39010 6.23432 14312 ft 385 kts 309°
2026-05-06 07:14 52.40657 6.19995 14069 ft 384 kts 309°
2026-05-06 07:15 52.42300 6.16559 13838 ft 382 kts 309°
2026-05-06 07:15 52.43936 6.13133 13593 ft 380 kts 309°
2026-05-06 07:15 52.45564 6.09721 13319 ft 379 kts 309°
2026-05-06 07:15 52.47120 6.06249 13038 ft 379 kts 303°
2026-05-06 07:16 52.48320 6.02406 12788 ft 379 kts 293°
2026-05-06 07:16 52.49096 5.98284 12526 ft 379 kts 283°
2026-05-06 07:16 52.49441 5.94006 12269 ft 378 kts 275°
2026-05-06 07:16 52.49636 5.89718 12010 ft 376 kts 275°
2026-05-06 07:17 52.49835 5.85439 11753 ft 375 kts 275°
2026-05-06 07:17 52.50034 5.81184 11499 ft 373 kts 275°
2026-05-06 07:17 52.50229 5.76945 11253 ft 372 kts 275°
2026-05-06 07:17 52.50418 5.72708 11001 ft 371 kts 275°
2026-05-06 07:18 52.50603 5.68494 10751 ft 369 kts 275°
2026-05-06 07:18 52.50784 5.64365 10509 ft 368 kts 275°
2026-05-06 07:18 52.50768 5.60163 10269 ft 368 kts 265°
2026-05-06 07:18 52.50198 5.56097 10022 ft 367 kts 249°
2026-05-06 07:19 52.49028 5.52395 9839 ft 360 kts 241°
2026-05-06 07:19 52.47819 5.48949 9856 ft 336 kts 240°
2026-05-06 07:19 52.46680 5.45753 9862 ft 305 kts 242°
2026-05-06 07:19 52.45644 5.42877 9781 ft 293 kts 240°
2026-05-06 07:20 52.44617 5.40035 9387 ft 288 kts 241°
2026-05-06 07:20 52.43599 5.37218 8907 ft 286 kts 241°
2026-05-06 07:20 52.42588 5.34415 8434 ft 285 kts 242°
2026-05-06 07:20 52.41569 5.31588 7951 ft 285 kts 242°
2026-05-06 07:21 52.40574 5.28775 7504 ft 287 kts 243°
2026-05-06 07:21 52.39601 5.25917 7067 ft 287 kts 242°
2026-05-06 07:21 52.38647 5.23054 6643 ft 286 kts 242°
2026-05-06 07:21 52.37706 5.20198 6254 ft 284 kts 243°
2026-05-06 07:22 52.36769 5.17351 5831 ft 283 kts 243°
2026-05-06 07:22 52.35834 5.14513 5395 ft 283 kts 243°
2026-05-06 07:22 52.34903 5.11680 4911 ft 285 kts 243°
2026-05-06 07:22 52.33956 5.08799 4386 ft 288 kts 243°
2026-05-06 07:23 52.32996 5.05892 3872 ft 295 kts 243°
2026-05-06 07:23 52.32028 5.02932 3502 ft 293 kts 243°
2026-05-06 07:23 52.31079 5.00027 3202 ft 288 kts 243°
2026-05-06 07:23 52.30138 4.97150 2920 ft 286 kts 242°
2026-05-06 07:24 52.29212 4.94252 2629 ft 288 kts 243°
2026-05-06 07:24 52.28294 4.91399 2330 ft 280 kts 243°
2026-05-06 07:24 52.27383 4.88615 2093 ft 275 kts 243°
2026-05-06 07:24 52.26481 4.85868 1996 ft 274 kts 243°
2026-05-06 07:25 52.25571 4.83116 2004 ft 275 kts 243°
2026-05-06 07:25 52.24669 4.80372 2009 ft 274 kts 243°
2026-05-06 07:25 52.23767 4.77626 2007 ft 274 kts 243°
2026-05-06 07:25 52.22867 4.74874 2006 ft 275 kts 243°
2026-05-06 07:26 52.21998 4.72215 1997 ft 254 kts 243°
2026-05-06 07:26 52.21186 4.69734 2017 ft 247 kts 243°
2026-05-06 07:26 52.20379 4.67270 2008 ft 246 kts 243°
2026-05-06 07:26 52.19575 4.64818 2004 ft 245 kts 243°
2026-05-06 07:27 52.18768 4.62379 2015 ft 244 kts 243°
2026-05-06 07:27 52.17956 4.59966 2006 ft 244 kts 243°
2026-05-06 07:27 52.17134 4.57540 2007 ft 243 kts 242°
2026-05-06 07:27 52.16466 4.55083 1994 ft 226 kts 263°
2026-05-06 07:28 52.16610 4.52713 1997 ft 200 kts 302°
2026-05-06 07:28 52.17477 4.51181 2008 ft 180 kts 341°
2026-05-06 07:28 52.19794 4.51376 2014 ft 167 kts 29°
2026-05-06 07:29 52.20698 4.52544 2011 ft 166 kts 51°
2026-05-06 07:29 52.21331 4.54103 2010 ft 164 kts 56°
2026-05-06 07:29 52.21933 4.55656 2004 ft 166 kts 56°
2026-05-06 07:29 52.22552 4.57252 2009 ft 167 kts 57°
2026-05-06 07:30 52.23176 4.58863 1992 ft 166 kts 57°
2026-05-06 07:30 52.23601 4.59961 1923 ft 180 kts 57°
2026-05-06 07:30 52.24446 4.62149 1665 ft 163 kts 57°
2026-05-06 07:30 52.25020 4.63634 1446 ft 148 kts 56°
2026-05-06 07:31 52.25548 4.65002 1259 ft 137 kts 56°
2026-05-06 07:31 52.26035 4.66264 1077 ft 129 kts 56°
2026-05-06 07:31 52.26506 4.67483 900 ft 126 kts 55°
2026-05-06 07:31 52.26976 4.68702 729 ft 127 kts 55°
2026-05-06 07:32 52.27449 4.69929 586 ft 127 kts 54°
2026-05-06 07:32 52.27913 4.71136 432 ft 126 kts 55°
2026-05-06 07:32 52.28390 4.72340 234 ft 126 kts 53°
2026-05-06 07:32 52.28857 4.73568 67 ft 127 kts 58°
2026-05-06 07:33 52.29302 4.74717 0 ft 106 kts 58°
2026-05-06 07:33 52.29597 4.75496 -2 ft 56 kts 59°
2026-05-06 07:33 52.29736 4.75786 -2 ft 18 kts 28°
2026-05-06 07:33 52.29840 4.75854 -2 ft 15 kts 27°
2026-05-06 07:34 52.29911 4.75916 -1 ft 10 kts 29°
2026-05-06 07:34 52.29970 4.75972 -1 ft 10 kts 33°
2026-05-06 07:34 52.30021 4.76064 -1 ft 12 kts 58°
2026-05-06 07:34 52.30069 4.76192 -1 ft 14 kts 58°
2026-05-06 07:35 52.30122 4.76331 -1 ft 15 kts 58°
2026-05-06 07:35 52.30183 4.76487 -1 ft 17 kts 57°
2026-05-06 07:35 52.30249 4.76659 -1 ft 18 kts 58°
2026-05-06 07:35 52.30320 4.76845 -1 ft 19 kts 58°
2026-05-06 07:36 52.30390 4.77026 -1 ft 10 kts 57°
2026-05-06 07:36 52.30447 4.77042 -1 ft 10 kts 342°
2026-05-06 07:36 52.30503 4.76975 -1 ft 10 kts 319°
2026-05-06 07:36 52.30561 4.76908 -1 ft 11 kts 326°
2026-05-06 07:37 52.30615 4.76824 -1 ft 11 kts 308°
2026-05-06 07:37 52.30656 4.76753 -1 ft 1 kts 318°
2026-05-06 07:37 52.30659 4.76749 -1 ft 0 kts 318°
2026-05-06 07:37 52.30660 4.76744 -1 ft 3 kts 304°
2026-05-06 07:38 52.30656 4.76715 -1 ft 0 kts 242°
2026-05-06 07:38 52.30655 4.76714 -1 ft 2 kts 242°
2026-05-06 07:38 52.30633 4.76653 -1 ft 5 kts 238°
2026-05-06 07:38 52.30625 4.76634 -1 ft 0 kts 237°